This demonstration page uses our WeatherBlox Daily Observations layout. Learn more.

Left ArrowRight Arrow

Hourly Observations for December 26, 2019

Temp ( °F °C ) Dew Point ( °F °C ) Humidity (%) Winds ( mph kmh ) Pressure ( in mb ) Visibility ( mi km ) Precip ( " mm )
12:26 am 00:26 Cloudy N/A N/A N/A NW 9 15 N/A 10 16 0.00 0.00
12:56 am 00:56 Cloudy with Mist and Fog 34 1 30 -1 87 87 NW 12 19 29.88 1012 6 10 0.00 0.00
1:56 am 01:56 Cloudy 32 0 28 -2 87 87 WNW 14 22 29.92 1013 10 16 0.00 0.00
2:56 am 02:56 Cloudy 30 -1 27 -3 86 86 NW 12 19 29.95 1014 10 16 0.00 0.00
3:56 am 03:56 Cloudy 30 -1 27 -3 86 86 NW 12 19 29.97 1015 10 16 0.00 0.00
4:56 am 04:56 Cloudy 32 0 27 -3 80 80 WNW 6 9 29.98 1015 10 16 0.00 0.00
5:56 am 05:56 Cloudy 32 0 27 -3 80 80 WNW 6 9 30.01 1016 10 16 0.00 0.00
6:56 am 06:56 Cloudy 32 0 27 -3 80 80 NW 5 7 30.03 1017 10 16 0.00 0.00
7:56 am 07:56 Cloudy 32 0 27 -3 80 80 NW 6 9 30.06 1018 10 16 0.00 0.00
8:56 am 08:56 Cloudy 32 0 27 -3 80 80 WNW 8 13 30.10 1019 10 16 0.00 0.00
9:56 am 09:56 Cloudy 32 0 27 -3 80 80 WNW 8 13 30.13 1020 10 16 0.00 0.00
10:56 am 10:56 Cloudy 34 1 27 -3 75 75 WNW 9 15 30.14 1021 10 16 0.00 0.00
11:56 am 11:56 Cloudy 34 1 27 -3 75 75 WNW 9 15 30.12 1020 10 16 0.00 0.00
12:56 pm 12:56 Cloudy 36 2 27 -3 70 70 W 9 15 30.11 1020 10 16 0.00 0.00
1:56 pm 13:56 Cloudy 36 2 27 -3 70 70 NW 9 15 30.12 1020 10 16 0.00 0.00
2:56 pm 14:56 Cloudy 34 1 27 -3 75 75 NW 8 13 30.15 1021 10 16 0.00 0.00
3:56 pm 15:56 Mostly Cloudy 34 1 27 -3 75 75 WNW 8 13 30.18 1022 10 16 0.00 0.00
4:56 pm 16:56 Sunny 32 0 25 -4 75 75 Calm 30.18 1022 10 16 0.00 0.00
5:56 pm 17:56 Clear 32 0 25 -4 75 75 WNW 5 7 30.21 1023 10 16 0.00 0.00
6:56 pm 18:56 Clear 32 0 25 -4 75 75 WNW 3 6 30.24 1024 10 16 0.00 0.00
7:56 pm 19:56 Mostly Cloudy 30 -1 25 -4 80 80 WNW 3 6 30.25 1024 10 16 0.00 0.00
8:56 pm 20:56 Cloudy 32 0 25 -4 75 75 NW 10 17 30.25 1024 10 16 0.00 0.00
9:56 pm 21:56 Cloudy 32 0 25 -4 75 75 WNW 5 7 30.27 1025 10 16 0.00 0.00
10:56 pm 22:56 Mostly Cloudy 30 -1 25 -4 80 80 NNW 3 6 30.28 1025 10 16 0.00 0.00
11:56 pm 23:56 Mostly Cloudy 28 -2 25 -4 86 86 NNW 3 6 30.27 1025 10 16 0.00 0.00

Powered by AerisWeather